Regional Weather Roundup
Issued by NWS Mt. Holly, NJ

Home | Current Version | Previous Version | Text Only | Print | Product List | Glossary On
Versions: 1 2 3 4 5 6 7 8 9 10 11 12 13 14 15 16 17 18 19 20 21 22 23 24 25 26 27 28 29 30 31 32 33 34 35 36 37 38 39 40 41 42 43 44 45 46 47 48 49 50
000
ASUS41 KPHI 261610
RWRPHI

REGIONAL WEATHER ROUNDUP
NATIONAL WEATHER SERVICE MOUNT HOLLY NJ
1100 AM EST FRI DEC 26 2014

NOTE:  "FAIR" INDICATES FEW OR NO CLOUDS BELOW 12,000 FEET WITH NO
SIGNIFICANT WEATHER AND/OR OBSTRUCTIONS TO VISIBILITY.

 * = STATION DOES NOT REPORT PRECIPITATION (E.G. RAIN, SNOW, ETC.)
        OR FOG.

NJZ015>026-261700-
SOUTHERN NEW JERSEY

CITY           SKY/WX    TMP DP  RH WIND       PRES   REMARKS
POMONA         SUNNY     46  30  53 NW15      30.29F
RIO GRANDE*    SUNNY     45  32  61 W9          N/A
MILLVILLE      SUNNY     47  31  53 NW8       30.31F
WRIGHTSTOWN    SUNNY     46  31  55 NW10      30.26F
MOUNT HOLLY    SUNNY     46  30  53 VRB7      30.30F
TRENTON        SUNNY     45  28  51 NW10      30.28F

$$
NJZ001>014-261700-
NORTHERN NEW JERSEY

CITY           SKY/WX    TMP DP  RH WIND       PRES   REMARKS
SUSSEX         SUNNY     43  29  57 VRB5      30.24F
ANDOVER*       NOT AVBL
MORRISTOWN     SUNNY     46  30  53 NW10G18   30.26S
NEWARK         NOT AVBL
TETERBORO      SUNNY     44  30  57 NW12      30.24F
CALDWELL       SUNNY     45  28  51 NW9       30.25F
SOMERVILLE     SUNNY     46  28  49 W7        30.26S
ALLAIRE*       SUNNY     46  28  49 W10G18    30.27S
TOMS RIVER*    SUNNY     45  30  57 W14       30.29F

$$
PAZ043-044-047-054-055-060>062-066>071-261700-
EASTERN PENNSYLVANIA

CITY           SKY/WX    TMP DP  RH WIND       PRES   REMARKS
PHILADELPHIA   MOSUNNY   46  29  51 NW10      30.31F
NORTH PHILA    SUNNY     47  28  47 VRB5      30.31F
BLUE BELL      SUNNY     45  32  61 W5        30.29F
DOYLESTOWN     SUNNY     43  30  60 W10G16    30.28S
POTTSTOWN      SUNNY     43  30  60 NW7       30.30F
LANCASTER      SUNNY     42  31  64 W8        30.30F
COATESVILLE    SUNNY     43  32  65 NW10      30.30F
READING        SUNNY     44  29  55 NW10      30.29F
ALLENTOWN      SUNNY     44  28  53 W7        30.29R
MOUNT POCONO   SUNNY     36  25  64 NW12      30.21R WCI  28
HAZLETON       SUNNY     37  28  70 W10       30.27F WCI  30
WILKES BARRE   SUNNY     41  28  60 W9        30.27R

$$
DEZALL-MDZ008-012-015-019-020-261700-
DELAWARE AND EASTERN MARYLAND

CITY           SKY/WX    TMP DP  RH WIND       PRES   REMARKS
WILMINGTON     SUNNY     47  31  53 NW8       30.33F
DOVER          SUNNY     47  33  58 W6        30.31S
GEORGETOWN     SUNNY     47  33  58 W5        30.34F
PATUXENT       MOSUNNY   47  30  51 CALM      30.35S
OCEAN CITY     SUNNY     48  33  56 NW5       30.34F
WALLOPS ISLAND SUNNY     48  33  56 NE5       30.35F
CAMBRIDGE      SUNNY     48  36  61 CALM      30.34F
SALISBURY      SUNNY     50  33  52 NW5       30.34F

$$
PAZ001-021-NYZ056-072-MDZ011-DCZ001-261700-
OTHER NEARBY LOCATIONS

CITY           SKY/WX    TMP DP  RH WIND       PRES   REMARKS
HARRISBURG     SUNNY     43  30  60 NW10      30.31S
STATE COLLEGE  MOSUNNY   39  28  65 W8        30.29F WCI  34
WILLIAMSPORT   SUNNY     42  28  57 W13       30.29S
BINGHAMTON     MOSUNNY   39  27  62 SW6       30.20F WCI  35
NEW YORK CITY  SUNNY     45  27  49 W8        30.27S
BALTIMORE      MOSUNNY   47  32  56 SW5       30.32F
WASHINGTON DC  MOSUNNY   47  33  58 S7        30.34F

$$


USA.gov is the U.S. government's official web portal to all federal, state and local government web resources and services.